Location: Agus-us
(14.2247°N, 120.8593°E)
Time: 09:52:29
(UTC+00:00)

COSMOS 2455 - Pass Details

Date: 13 December 2025
Orbit: 898 x 910 km, 67.1° (Epoch: 15 January)

Event Time Altitude Azimuth Distance (km) Brightness Sun altitude
Exits shadow 21:32:44 - 316° (NW) 2,682 4.7 -9.7°
Reaches altitude 10° 21:33:02 10° 315° (NW) 2,584 4.7 -9.6°
Maximum altitude 21:38:18 33° 253° (WSW) 1,474 3.6 -8.4°
Drops below altitude 10° 21:43:35 10° 190° (S) 2,575 5.4 -7.2°
Sets 21:46:19 0° 181° (S) 3,513 6.2 -6.6°
